User: anonymous   Login
Location: Unspecified
(0.0000°N, 0.0000°E)
Time: 07:04:53
(UTC+00:00)
Language:

P76-5 - Orbit

View from above orbital plane
View from above orbital plane
View from above satellite
View from above satellite

Ground track
Ground track

The orbit data is extracted from the following two-line orbital elements,

1  8860U 76047A   18350.96812382 -.00000014 +00000-0 +37136-4 0  9992
2  8860 099.7161 106.6843 0042757 128.8193 339.1837 13.67594455121908
Epoch (UTC): 16 December 2018 23:14:05
Eccentricity: 0.0042757
inclination: 99.7161°
perigee height: 976 km
apogee height: 1040 km
right ascension of ascending node: 106.6843°
argument of perigee: 128.8193°
revolutions per day: 13.67594455
mean anomaly at epoch: 339.1837°
orbit number at epoch: 12190

The dashed part of the orbit path shows where the satellite is in the earth's shadow,  

DLR